When you browse on this site, cookies collect data to enhance your experience and personalize the content and advertising you see.
Visit our Privacy Policy to learn more. By continuing to use the site, you agree to this use of cookies and data.
  • Em Portugal
  • Lista de países
  • Para 7 dias
  • Temperatura da água
  • Mapas de satélite
  • Mapa do tempo
  • Widgets de tempo
  • user-avatar
    Iniciar Sessão

    Previsão horária em Tatinki

    Hoje, 22 Fevereiro, Sexta-feira

    Tempo Temperatura Precipitação Vento Pressão Humidade
    00:00 -14°C° 0 mm 6 m/s 736 mmHg 84%
    01:00 -14°C° 0 mm 6 m/s 736 mmHg 85%
    02:00 -14°C° 0 mm 5 m/s 736 mmHg 85%
    03:00 -15°C° 0 mm 6 m/s 737 mmHg 86%
    04:00 -15°C° 0 mm 6 m/s 737 mmHg 86%
    05:00 -15°C° 0 mm 6 m/s 737 mmHg 87%
    06:00 -14°C° 0.1 mm 6 m/s 738 mmHg 87%
    07:00 -14°C° 0.1 mm 6 m/s 738 mmHg 87%
    08:00 -14°C° 0.1 mm 6 m/s 738 mmHg 87%
    09:00 -14°C° 0.1 mm 6 m/s 739 mmHg 86%
    10:00 -14°C° 0.1 mm 7 m/s 740 mmHg 85%
    11:00 -13°C° 0.1 mm 7 m/s 740 mmHg 83%
    12:00 -13°C° 0.1 mm 7 m/s 741 mmHg 83%
    13:00 -13°C° 0.1 mm 7 m/s 741 mmHg 83%
    14:00 -12°C° 0.1 mm 6 m/s 742 mmHg 83%
    15:00 -12°C° 0.1 mm 6 m/s 743 mmHg 84%
    16:00 -13°C° 0.1 mm 5 m/s 744 mmHg 85%
    17:00 -13°C° 0.1 mm 5 m/s 744 mmHg 86%
    18:00 -13°C° 0 mm 5 m/s 745 mmHg 86%
    19:00 -13°C° 0 mm 5 m/s 746 mmHg 86%
    20:00 -15°C° 0 mm 6 m/s 747 mmHg 86%
    21:00 -14°C° 0 mm 5 m/s 747 mmHg 86%
    22:00 -15°C° 0 mm 5 m/s 748 mmHg 86%
    23:00 -15°C° 0 mm 5 m/s 749 mmHg 86%

    Amanhã, 23 Fevereiro, Sábado

    Tempo Temperatura Precipitação Vento Pressão Humidade
    00:00 -17°C° 0 mm 5 m/s 749 mmHg 87%
    01:00 -16°C° 0 mm 4 m/s 750 mmHg 88%
    02:00 -16°C° 0 mm 4 m/s 751 mmHg 88%
    03:00 -17°C° 0 mm 4 m/s 751 mmHg 89%
    04:00 -17°C° 0 mm 4 m/s 752 mmHg 90%
    05:00 -17°C° 0 mm 4 m/s 752 mmHg 91%
    06:00 -17°C° 0 mm 4 m/s 753 mmHg 92%
    07:00 -16°C° 0 mm 3 m/s 753 mmHg 92%
    08:00 -17°C° 0 mm 3 m/s 754 mmHg 93%
    09:00 -16°C° 0 mm 3 m/s 754 mmHg 92%
    10:00 -15°C° 0 mm 3 m/s 755 mmHg 90%
    11:00 -14°C° 0 mm 3 m/s 755 mmHg 89%
    12:00 -13°C° 0 mm 3 m/s 755 mmHg 88%
    13:00 -12°C° 0 mm 3 m/s 754 mmHg 87%
    14:00 -10°C° 0 mm 2 m/s 754 mmHg 85%
    15:00 -10°C° 0 mm 2 m/s 754 mmHg 85%
    16:00 -12°C° 0 mm 2 m/s 754 mmHg 85%
    17:00 -13°C° 0 mm 2 m/s 754 mmHg 85%
    18:00 -12°C° 0 mm 2 m/s 753 mmHg 86%
    19:00 -13°C° 0 mm 3 m/s 753 mmHg 87%
    20:00 -12°C° 0 mm 3 m/s 753 mmHg 88%
    21:00 -12°C° 0 mm 3 m/s 753 mmHg 87%
    22:00 -11°C° 0 mm 4 m/s 752 mmHg 87%
    23:00 -11°C° 0 mm 4 m/s 752 mmHg 86%

    Depois de amanhã, 24 Fevereiro, Domingo

    Tempo Temperatura Precipitação Vento Pressão Humidade
    00:00 -10°C° 0.2 mm 4 m/s 751 mmHg 88%
    01:00 -11°C° 0.2 mm 5 m/s 751 mmHg 90%
    02:00 -10°C° 0.2 mm 5 m/s 750 mmHg 93%
    03:00 -10°C° 0.3 mm 5 m/s 750 mmHg 93%
    04:00 -10°C° 0.3 mm 5 m/s 749 mmHg 93%
    05:00 -10°C° 0.3 mm 5 m/s 749 mmHg 93%
    06:00 -10°C° 0.1 mm 5 m/s 749 mmHg 93%
    07:00 -8°C° 0.1 mm 4 m/s 749 mmHg 93%
    08:00 -8°C° 0.1 mm 4 m/s 749 mmHg 93%
    09:00 -7°C° 0 mm 4 m/s 749 mmHg 93%
    10:00 -5°C° 0 mm 4 m/s 749 mmHg 93%
    11:00 -4°C° 0 mm 4 m/s 749 mmHg 94%
    12:00 -3°C° 0.1 mm 4 m/s 749 mmHg 94%
    13:00 -3°C° 0.1 mm 4 m/s 748 mmHg 94%
    14:00 -2°C° 0.1 mm 4 m/s 748 mmHg 95%
    15:00 -2°C° 0 mm 4 m/s 748 mmHg 94%
    16:00 -2°C° 0 mm 4 m/s 748 mmHg 94%
    17:00 -2°C° 0 mm 4 m/s 748 mmHg 94%
    18:00 -2°C° 0 mm 4 m/s 748 mmHg 94%
    19:00 -2°C° 0 mm 4 m/s 749 mmHg 94%
    20:00 -2°C° 0 mm 4 m/s 749 mmHg 94%
    21:00 -2°C° 0 mm 4 m/s 748 mmHg 94%
    22:00 -2°C° 0 mm 4 m/s 748 mmHg 94%
    23:00 -2°C° 0 mm 4 m/s 748 mmHg 94%

    25 Fevereiro, Segunda-feira

    Tempo Temperatura Precipitação Vento Pressão Humidade
    00:00 -2°C° 0 mm 4 m/s 748 mmHg 94%
    01:00 -2°C° 0 mm 5 m/s 748 mmHg 95%
    02:00 -2°C° 0 mm 5 m/s 747 mmHg 95%
    03:00 -2°C° 0 mm 5 m/s 747 mmHg 95%
    04:00 -2°C° 0 mm 5 m/s 746 mmHg 95%
    05:00 -2°C° 0 mm 5 m/s 745 mmHg 94%
    06:00 -3°C° 0.1 mm 6 m/s 745 mmHg 94%
    07:00 -2°C° 0.1 mm 6 m/s 744 mmHg 94%
    08:00 -2°C° 0.1 mm 6 m/s 744 mmHg 94%
    09:00 -2°C° 0.1 mm 6 m/s 743 mmHg 95%
    10:00 -2°C° 0.1 mm 6 m/s 743 mmHg 96%
    11:00 -2°C° 0.1 mm 6 m/s 743 mmHg 97%
    12:00 -2°C° 0 mm 6 m/s 742 mmHg 95%
    13:00 -2°C° 0 mm 6 m/s 742 mmHg 94%
    14:00 -1°C° 0 mm 5 m/s 742 mmHg 92%
    15:00 -1°C° 0 mm 5 m/s 742 mmHg 90%
    16:00 -1°C° 0 mm 5 m/s 742 mmHg 88%
    17:00 -2°C° 0 mm 5 m/s 742 mmHg 86%
    18:00 -2°C° 0 mm 5 m/s 742 mmHg 87%
    19:00 -4°C° 0 mm 5 m/s 742 mmHg 87%
    20:00 -4°C° 0 mm 6 m/s 742 mmHg 88%
    21:00 -5°C° 0 mm 5 m/s 741 mmHg 88%
    22:00 -5°C° 0 mm 5 m/s 741 mmHg 88%
    23:00 -6°C° 0 mm 5 m/s 741 mmHg 89%

    26 Fevereiro, Terça-feira

    Tempo Temperatura Precipitação Vento Pressão Humidade
    00:00 -6°C° 0 mm 5 m/s 740 mmHg 89%
    01:00 -6°C° 0 mm 5 m/s 740 mmHg 90%
    02:00 -6°C° 0 mm 5 m/s 740 mmHg 91%
    03:00 -6°C° 0 mm 5 m/s 739 mmHg 91%
    04:00 -5°C° 0 mm 5 m/s 739 mmHg 91%
    05:00 -4°C° 0 mm 4 m/s 738 mmHg 90%
    06:00 -3°C° 0 mm 4 m/s 737 mmHg 91%
    07:00 -3°C° 0 mm 4 m/s 736 mmHg 91%
    08:00 -3°C° 0 mm 4 m/s 736 mmHg 92%
    09:00 -3°C° 0.2 mm 4 m/s 735 mmHg 93%
    10:00 -3°C° 0.2 mm 4 m/s 734 mmHg 94%
    11:00 -3°C° 0.2 mm 4 m/s 732 mmHg 95%
    12:00 -1°C° 0.4 mm 3 m/s 732 mmHg 95%
    13:00 -1°C° 0.4 mm 3 m/s 731 mmHg 95%
    14:00 -1°C° 0.4 mm 2 m/s 730 mmHg 96%
    15:00 -1°C° 0.1 mm 2 m/s 730 mmHg 96%
    16:00 -2°C° 0.1 mm 2 m/s 730 mmHg 96%
    17:00 -2°C° 0.1 mm 2 m/s 730 mmHg 95%
    18:00 -2°C° 0.1 mm 3 m/s 730 mmHg 94%
    19:00 -3°C° 0.1 mm 4 m/s 731 mmHg 94%
    20:00 -3°C° 0.1 mm 4 m/s 731 mmHg 93%
    21:00 -5°C° 0 mm 5 m/s 732 mmHg 92%
    22:00 -6°C° 0 mm 5 m/s 732 mmHg 92%
    23:00 -7°C° 0 mm 5 m/s 733 mmHg 92%

    27 Fevereiro, Quarta-feira

    Tempo Temperatura Precipitação Vento Pressão Humidade
    00:00 -7°C° 0 mm 5 m/s 733 mmHg 92%
    01:00 -7°C° 0 mm 5 m/s 733 mmHg 92%
    02:00 -8°C° 0 mm 5 m/s 734 mmHg 92%
    03:00 -7°C° 0 mm 5 m/s 734 mmHg 92%
    04:00 -7°C° 0 mm 5 m/s 734 mmHg 91%
    05:00 -7°C° 0 mm 5 m/s 734 mmHg 90%
    06:00 -7°C° 0.1 mm 5 m/s 734 mmHg 90%
    07:00 -6°C° 0.1 mm 5 m/s 734 mmHg 90%
    08:00 -6°C° 0.1 mm 6 m/s 735 mmHg 91%
    09:00 -6°C° 0.1 mm 6 m/s 735 mmHg 89%
    10:00 -5°C° 0.1 mm 6 m/s 735 mmHg 87%
    11:00 -5°C° 0.1 mm 6 m/s 736 mmHg 86%
    12:00 -5°C° 0 mm 5 m/s 736 mmHg 86%
    13:00 -5°C° 0 mm 5 m/s 736 mmHg 86%
    14:00 -4°C° 0 mm 4 m/s 736 mmHg 86%
    15:00 -5°C° 0 mm 4 m/s 736 mmHg 87%
    16:00 -6°C° 0 mm 3 m/s 736 mmHg 88%
    17:00 -6°C° 0 mm 3 m/s 736 mmHg 89%
    18:00 -8°C° 0 mm 3 m/s 736 mmHg 89%
    19:00 -8°C° 0 mm 2 m/s 736 mmHg 90%
    20:00 -9°C° 0 mm 2 m/s 736 mmHg 91%
    21:00 -9°C° 0 mm 2 m/s 735 mmHg 91%
    22:00 -10°C° 0 mm 3 m/s 735 mmHg 92%
    23:00 -10°C° 0 mm 3 m/s 734 mmHg 92%
    Mostrar mais